sat.trackr.live / text

‹ back to catalog

STARLINK-3909

NORAD 52452 · 2022-049B

PAYLOAD ACTIVE UNKNOWN

§ Identity

Operator
Country
US
Launch date
2022-05-06
Launch site
AFETR
Launch vehicle
Mass (kg)
RCS (m²)

Purposes: comms

External: N2YO · Heavens-Above · Gunter

§ Orbital elements

Epoch: 2026-09-20T04:00:03.000096Z

Period
93.91 min
Inclination
53.1684°
Eccentricity
0.0001490
Mean motion
15.33354978 rev/d
Perigee alt
464.8 km
Apogee alt
466.8 km
Semi-major
6,843.9 km
B*
2.0092e-2
RAAN
272.6041°
Arg perigee
85.2143°
Mean anomaly
21.1893°
Rev number
579

§ Raw data

STARLINK-39091 52452U 22049B   26263.16670139  .00702630  00000+0  20092-1 0  99982 52452  53.1684 272.6041 0001490  85.2143  21.1893 15.33354978  5799

JSON: /api/v1/satellites/52452 · /tle

For live sub-satellite position, see the globe view (requires WebGL).

§ Visibility from observer

Set your observer location to see the next 7 days of passes ≥ 10°. The values pass through the URL so the page stays shareable.

No JS? Fill the form by hand. The geolocation button needs JavaScript.